Time,TemperatureF,DewpointF,PressureIn,WindDirection,WindDirectionDegrees,WindSpeedMPH,WindSpeedGustMPH,Humidity,HourlyPrecipIn,Conditions,Clouds,dailyrainin,SoftwareType,DateUTC
2013-06-14 00:00:00,54.9,54.9,29.71,NE,47,0.4,3.2,100,0.02,n/a,n/a,-99.99,Henriksen +1-Wire,2013-06-14 04:00:00,
2013-06-14 00:01:00,54.9,54.9,29.70,ENE,60,0.3,2.3,100,0.02,n/a,n/a,-99.99,Henriksen +1-Wire,2013-06-14 04:01:00,
2013-06-14 00:02:00,54.9,54.9,29.70,ENE,65,0.1,1.6,100,0.02,n/a,n/a,-99.99,Henriksen +1-Wire,2013-06-14 04:02:00,
2013-06-14 00:03:00,54.9,54.9,29.70,ENE,59,0.1,1.6,100,0.02,n/a,n/a,-99.99,Henriksen +1-Wire,2013-06-14 04:03:00,
2013-06-14 00:04:00,54.9,54.9,29.70,ENE,59,0.2,1.6,100,0.02,n/a,n/a,-99.99,Henriksen +1-Wire,2013-06-14 04:04:00,
2013-06-14 00:06:00,54.9,54.9,29.70,ENE,73,0.0,1.6,100,0.02,n/a,n/a,-99.99,Henriksen +1-Wire,2013-06-14 04:06:00,
2013-06-14 00:11:00,54.9,54.9,29.70,SE,135,0.0,0.8,100,0.03,n/a,n/a,-99.99,Henriksen +1-Wire,2013-06-14 04:11:00,
2013-06-14 00:17:00,54.9,54.9,29.70,ESE,114,0.3,1.7,100,0.03,n/a,n/a,-99.99,Henriksen +1-Wire,2013-06-14 04:17:00,
2013-06-14 00:22:00,54.9,54.9,29.70,ESE,115,0.0,1.7,100,0.02,n/a,n/a,-99.99,Henriksen +1-Wire,2013-06-14 04:22:00,
2013-06-14 00:27:00,54.8,54.8,29.70,East,95,0.0,0.0,100,0.02,n/a,n/a,-99.99,Henriksen +1-Wire,2013-06-14 04:27:00,
2013-06-14 00:32:00,54.8,54.8,29.70,NE,47,0.0,0.8,100,0.02,n/a,n/a,-99.99,Henriksen +1-Wire,2013-06-14 04:32:00,
2013-06-14 00:37:00,54.8,54.8,29.70,NE,49,0.0,0.8,100,0.03,n/a,n/a,-99.99,Henriksen +1-Wire,2013-06-14 04:37:00,
2013-06-14 00:42:00,54.8,54.8,29.70,NE,38,0.0,0.8,100,0.02,n/a,n/a,-99.99,Henriksen +1-Wire,2013-06-14 04:42:00,
2013-06-14 00:47:00,54.8,54.8,29.69,East,82,0.0,0.8,100,0.02,n/a,n/a,-99.99,Henriksen +1-Wire,2013-06-14 04:47:00,
2013-06-14 00:52:00,54.8,54.8,29.69,East,83,0.0,0.8,100,0.02,n/a,n/a,-99.99,Henriksen +1-Wire,2013-06-14 04:52:00,
2013-06-14 00:58:00,54.7,54.7,29.69,ENE,75,0.0,0.8,100,0.02,n/a,n/a,-99.99,Henriksen +1-Wire,2013-06-14 04:58:00,
2013-06-14 01:03:00,54.7,54.7,29.69,ENE,78,0.0,0.8,100,0.02,n/a,n/a,-99.99,Henriksen +1-Wire,2013-06-14 05:03:00,
2013-06-14 01:08:00,54.6,54.6,29.68,East,96,0.0,0.8,100,0.01,n/a,n/a,-99.99,Henriksen +1-Wire,2013-06-14 05:08:00,
2013-06-14 01:13:00,54.6,54.6,29.68,NE,49,0.0,0.8,100,0.02,n/a,n/a,-99.99,Henriksen +1-Wire,2013-06-14 05:13:00,
2013-06-14 01:18:00,54.6,54.6,29.68,ENE,58,0.0,0.5,100,0.02,n/a,n/a,-99.99,Henriksen +1-Wire,2013-06-14 05:18:00,
2013-06-14 01:23:00,54.6,54.6,29.68,ENE,58,0.0,0.8,100,0.02,n/a,n/a,-99.99,Henriksen +1-Wire,2013-06-14 05:23:00,
2013-06-14 01:28:00,54.6,54.6,29.68,ENE,62,0.0,0.8,100,0.02,n/a,n/a,-99.99,Henriksen +1-Wire,2013-06-14 05:28:00,
2013-06-14 01:34:00,54.5,54.5,29.68,ENE,63,0.0,0.5,100,0.02,n/a,n/a,-99.99,Henriksen +1-Wire,2013-06-14 05:34:00,
2013-06-14 01:39:00,54.5,54.5,29.68,ENE,59,0.0,0.0,100,0.02,n/a,n/a,-99.99,Henriksen +1-Wire,2013-06-14 05:39:00,
2013-06-14 01:45:00,54.5,54.5,29.68,East,82,0.1,0.8,100,0.02,n/a,n/a,-99.99,Henriksen +1-Wire,2013-06-14 05:45:00,
2013-06-14 01:50:00,54.5,54.5,29.68,East,79,0.1,1.6,100,0.02,n/a,n/a,-99.99,Henriksen +1-Wire,2013-06-14 05:50:00,
2013-06-14 01:55:00,54.4,54.4,29.68,ESE,108,0.0,1.6,100,0.03,n/a,n/a,-99.99,Henriksen +1-Wire,2013-06-14 05:55:00,
2013-06-14 02:00:00,54.4,54.4,29.68,ENE,75,0.0,0.0,100,0.03,n/a,n/a,-99.99,Henriksen +1-Wire,2013-06-14 06:00:00,
2013-06-14 02:05:00,54.4,54.4,29.68,East,99,0.2,1.6,100,0.04,n/a,n/a,-99.99,Henriksen +1-Wire,2013-06-14 06:05:00,
2013-06-14 02:11:00,54.4,54.4,29.68,ENE,71,0.0,1.6,100,0.03,n/a,n/a,-99.99,Henriksen +1-Wire,2013-06-14 06:11:00,
2013-06-14 02:16:00,54.3,54.3,29.67,East,86,0.0,1.6,100,0.04,n/a,n/a,-99.99,Henriksen +1-Wire,2013-06-14 06:16:00,
2013-06-14 02:21:00,54.3,54.3,29.67,ENE,66,0.1,1.6,100,0.05,n/a,n/a,-99.99,Henriksen +1-Wire,2013-06-14 06:21:00,
2013-06-14 02:27:00,54.3,54.3,29.67,East,97,0.0,2.3,100,0.05,n/a,n/a,-99.99,Henriksen +1-Wire,2013-06-14 06:27:00,
2013-06-14 02:32:00,54.3,54.3,29.67,East,98,0.6,2.3,100,0.05,n/a,n/a,-99.99,Henriksen +1-Wire,2013-06-14 06:32:00,
2013-06-14 02:37:00,54.3,54.3,29.67,ESE,121,0.0,2.1,100,0.05,n/a,n/a,-99.99,Henriksen +1-Wire,2013-06-14 06:37:00,
2013-06-14 02:42:00,54.3,54.3,29.67,East,92,0.1,1.9,100,0.05,n/a,n/a,-99.99,Henriksen +1-Wire,2013-06-14 06:42:00,
2013-06-14 02:47:00,54.2,54.2,29.67,East,96,0.2,2.0,100,0.06,n/a,n/a,-99.99,Henriksen +1-Wire,2013-06-14 06:47:00,
2013-06-14 02:52:00,54.2,54.2,29.67,East,87,0.3,2.4,100,0.06,n/a,n/a,-99.99,Henriksen +1-Wire,2013-06-14 06:52:00,
2013-06-14 02:57:00,54.2,54.2,29.67,East,95,1.8,3.7,100,0.06,n/a,n/a,-99.99,Henriksen +1-Wire,2013-06-14 06:57:00,
2013-06-14 03:02:00,54.1,54.1,29.66,ESE,102,1.1,3.9,100,0.06,n/a,n/a,-99.99,Henriksen +1-Wire,2013-06-14 07:02:00,
2013-06-14 03:07:00,54.1,54.1,29.66,East,97,0.1,3.9,100,0.06,n/a,n/a,-99.99,Henriksen +1-Wire,2013-06-14 07:07:00,
2013-06-14 03:12:00,54.0,54.0,29.66,East,97,1.4,3.2,100,0.06,n/a,n/a,-99.99,Henriksen +1-Wire,2013-06-14 07:12:00,
2013-06-14 03:17:00,53.9,53.9,29.66,East,97,1.2,5.5,100,0.07,n/a,n/a,-99.99,Henriksen +1-Wire,2013-06-14 07:17:00,
2013-06-14 03:22:00,53.9,53.9,29.66,ENE,58,1.7,5.5,100,0.07,n/a,n/a,-99.99,Henriksen +1-Wire,2013-06-14 07:22:00,
2013-06-14 03:27:00,53.8,53.8,29.66,ENE,75,1.3,3.2,100,0.08,n/a,n/a,-99.99,Henriksen +1-Wire,2013-06-14 07:27:00,
2013-06-14 03:32:00,53.8,53.8,29.66,East,81,2.1,5.0,100,0.08,n/a,n/a,-99.99,Henriksen +1-Wire,2013-06-14 07:32:00,
2013-06-14 03:37:00,53.7,53.7,29.66,ENE,75,1.7,5.0,100,0.08,n/a,n/a,-99.99,Henriksen +1-Wire,2013-06-14 07:37:00,
2013-06-14 03:42:00,53.6,53.6,29.66,ENE,69,1.4,3.2,100,0.09,n/a,n/a,-99.99,Henriksen +1-Wire,2013-06-14 07:42:00,
2013-06-14 03:48:00,53.6,53.6,29.67,ENE,72,0.8,2.8,100,0.09,n/a,n/a,-99.99,Henriksen +1-Wire,2013-06-14 07:48:00,
2013-06-14 03:54:00,53.5,53.5,29.67,ENE,78,0.6,3.4,100,0.10,n/a,n/a,-99.99,Henriksen +1-Wire,2013-06-14 07:54:00,
2013-06-14 03:59:00,53.5,53.5,29.67,East,82,1.7,3.4,100,0.10,n/a,n/a,-99.99,Henriksen +1-Wire,2013-06-14 07:59:00,
2013-06-14 04:05:00,53.5,53.5,29.67,East,84,0.6,3.2,100,0.11,n/a,n/a,-99.99,Henriksen +1-Wire,2013-06-14 08:05:00,
2013-06-14 04:10:00,53.3,53.3,29.67,East,94,0.8,3.6,100,0.11,n/a,n/a,-99.99,Henriksen +1-Wire,2013-06-14 08:10:00,
2013-06-14 04:15:00,53.2,53.2,29.68,ESE,110,0.8,3.6,100,0.11,n/a,n/a,-99.99,Henriksen +1-Wire,2013-06-14 08:15:00,
2013-06-14 04:20:00,53.1,53.1,29.68,East,88,0.6,3.9,100,0.11,n/a,n/a,-99.99,Henriksen +1-Wire,2013-06-14 08:20:00,
2013-06-14 04:25:00,53.0,53.0,29.68,East,87,0.2,3.9,100,0.12,n/a,n/a,-99.99,Henriksen +1-Wire,2013-06-14 08:25:00,
2013-06-14 04:30:00,52.9,52.9,29.68,ENE,76,0.2,2.5,100,0.12,n/a,n/a,-99.99,Henriksen +1-Wire,2013-06-14 08:30:00,
2013-06-14 04:35:00,52.8,52.8,29.68,East,82,0.7,2.5,100,0.11,n/a,n/a,-99.99,Henriksen +1-Wire,2013-06-14 08:35:00,
2013-06-14 04:40:00,52.8,52.8,29.68,NE,45,0.1,1.6,100,0.12,n/a,n/a,-99.99,Henriksen +1-Wire,2013-06-14 08:40:00,
2013-06-14 04:45:00,52.7,52.7,29.68,ENE,76,0.1,1.6,100,0.12,n/a,n/a,-99.99,Henriksen +1-Wire,2013-06-14 08:45:00,
2013-06-14 04:51:00,52.6,52.6,29.67,ENE,59,0.0,1.6,100,0.12,n/a,n/a,-99.99,Henriksen +1-Wire,2013-06-14 08:51:00,
2013-06-14 04:56:00,52.6,52.6,29.68,NE,48,1.1,1.6,100,0.12,n/a,n/a,-99.99,Henriksen +1-Wire,2013-06-14 08:56:00,
2013-06-14 05:01:00,52.6,52.6,29.68,NE,47,0.2,2.4,100,0.10,n/a,n/a,-99.99,Henriksen +1-Wire,2013-06-14 09:01:00,
2013-06-14 05:06:00,52.6,52.6,29.68,NE,45,0.2,2.4,100,0.10,n/a,n/a,-99.99,Henriksen +1-Wire,2013-06-14 09:06:00,
2013-06-14 05:11:00,52.6,52.6,29.68,NE,50,0.9,2.4,100,0.09,n/a,n/a,-99.99,Henriksen +1-Wire,2013-06-14 09:11:00,
2013-06-14 05:16:00,52.6,52.6,29.68,NE,53,0.7,2.4,100,0.09,n/a,n/a,-99.99,Henriksen +1-Wire,2013-06-14 09:16:00,
2013-06-14 05:21:00,52.6,52.6,29.68,ENE,72,0.6,2.4,100,0.08,n/a,n/a,-99.99,Henriksen +1-Wire,2013-06-14 09:21:00,
2013-06-14 05:26:00,52.5,52.5,29.68,NE,55,0.1,2.4,100,0.07,n/a,n/a,-99.99,Henriksen +1-Wire,2013-06-14 09:26:00,
2013-06-14 05:31:00,52.5,52.5,29.68,East,97,0.5,1.9,100,0.07,n/a,n/a,-99.99,Henriksen +1-Wire,2013-06-14 09:31:00,
2013-06-14 05:36:00,52.5,52.5,29.68,East,87,0.1,2.4,100,0.06,n/a,n/a,-99.99,Henriksen +1-Wire,2013-06-14 09:36:00,
2013-06-14 05:42:00,52.4,52.4,29.68,ESE,121,0.4,2.9,100,0.06,n/a,n/a,-99.99,Henriksen +1-Wire,2013-06-14 09:42:00,
2013-06-14 05:47:00,52.4,52.4,29.68,ESE,123,0.5,2.9,100,0.06,n/a,n/a,-99.99,Henriksen +1-Wire,2013-06-14 09:47:00,
2013-06-14 05:52:00,52.4,52.4,29.68,ESE,113,0.2,3.2,100,0.05,n/a,n/a,-99.99,Henriksen +1-Wire,2013-06-14 09:52:00,
2013-06-14 05:57:00,52.3,52.3,29.68,ESE,114,0.1,3.2,100,0.05,n/a,n/a,-99.99,Henriksen +1-Wire,2013-06-14 09:57:00,
2013-06-14 06:02:00,52.3,52.3,29.68,ESE,104,0.3,2.4,100,0.05,n/a,n/a,-99.99,Henriksen +1-Wire,2013-06-14 10:02:00,
2013-06-14 06:07:00,52.3,52.3,29.68,East,93,0.0,2.4,100,0.04,n/a,n/a,-99.99,Henriksen +1-Wire,2013-06-14 10:07:00,
2013-06-14 06:13:00,52.3,52.3,29.68,ENE,73,0.0,2.4,100,0.05,n/a,n/a,-99.99,Henriksen +1-Wire,2013-06-14 10:13:00,
2013-06-14 06:18:00,52.3,52.3,29.69,ENE,60,0.1,1.6,100,0.04,n/a,n/a,-99.99,Henriksen +1-Wire,2013-06-14 10:18:00,
2013-06-14 06:23:00,52.3,52.3,29.69,NE,42,0.0,1.6,100,0.04,n/a,n/a,-99.99,Henriksen +1-Wire,2013-06-14 10:23:00,
2013-06-14 06:28:00,52.3,52.3,29.69,NE,55,0.5,1.6,100,0.04,n/a,n/a,-99.99,Henriksen +1-Wire,2013-06-14 10:28:00,
2013-06-14 06:34:00,52.4,52.4,29.69,NE,50,0.0,1.6,100,0.04,n/a,n/a,-99.99,Henriksen +1-Wire,2013-06-14 10:34:00,
2013-06-14 06:39:00,52.4,52.4,29.69,NE,42,0.0,0.8,100,0.04,n/a,n/a,-99.99,Henriksen +1-Wire,2013-06-14 10:39:00,
2013-06-14 06:45:00,52.4,52.4,29.69,SE,127,0.3,0.8,100,0.04,n/a,n/a,-99.99,Henriksen +1-Wire,2013-06-14 10:45:00,
2013-06-14 06:50:00,52.4,52.4,29.69,SE,135,0.0,1.6,100,0.04,n/a,n/a,-99.99,Henriksen +1-Wire,2013-06-14 10:50:00,
2013-06-14 06:55:00,52.4,52.4,29.69,ENE,70,0.0,1.6,100,0.05,n/a,n/a,-99.99,Henriksen +1-Wire,2013-06-14 10:55:00,
2013-06-14 07:00:00,52.5,52.5,29.69,NE,54,0.0,0.8,100,0.04,n/a,n/a,-99.99,Henriksen +1-Wire,2013-06-14 11:00:00,
2013-06-14 07:05:00,52.5,52.5,29.69,NE,56,0.0,0.0,100,0.04,n/a,n/a,-99.99,Henriksen +1-Wire,2013-06-14 11:05:00,
2013-06-14 07:10:00,52.5,52.5,29.69,NE,48,0.0,0.0,100,0.03,n/a,n/a,-99.99,Henriksen +1-Wire,2013-06-14 11:10:00,
2013-06-14 07:15:00,52.5,52.5,29.69,NNE,18,0.0,0.8,100,0.03,n/a,n/a,-99.99,Henriksen +1-Wire,2013-06-14 11:15:00,
2013-06-14 07:20:00,52.6,52.6,29.70,ESE,113,0.0,0.8,100,0.03,n/a,n/a,-99.99,Henriksen +1-Wire,2013-06-14 11:20:00,
2013-06-14 07:25:00,52.6,52.6,29.70,SSE,147,0.0,0.0,100,0.03,n/a,n/a,-99.99,Henriksen +1-Wire,2013-06-14 11:25:00,
2013-06-14 07:30:00,52.6,52.6,29.70,NNE,28,0.0,0.8,100,0.03,n/a,n/a,-99.99,Henriksen +1-Wire,2013-06-14 11:30:00,
2013-06-14 07:35:00,52.7,52.7,29.70,ESE,103,0.0,0.8,100,0.02,n/a,n/a,-99.99,Henriksen +1-Wire,2013-06-14 11:35:00,
2013-06-14 07:40:00,52.8,52.8,29.70,South,171,0.0,0.0,100,0.02,n/a,n/a,-99.99,Henriksen +1-Wire,2013-06-14 11:40:00,
2013-06-14 07:45:00,52.9,52.9,29.70,NNW,332,0.1,1.0,100,0.02,n/a,n/a,-99.99,Henriksen +1-Wire,2013-06-14 11:45:00,
2013-06-14 07:50:00,53.0,53.0,29.70,South,178,0.0,1.0,100,0.02,n/a,n/a,-99.99,Henriksen +1-Wire,2013-06-14 11:50:00,
2013-06-14 07:55:00,53.1,53.1,29.70,SSW,203,0.0,0.0,100,0.01,n/a,n/a,-99.99,Henriksen +1-Wire,2013-06-14 11:55:00,
2013-06-14 08:00:00,53.2,53.2,29.70,WSW,248,0.0,0.0,100,0.01,n/a,n/a,-99.99,Henriksen +1-Wire,2013-06-14 12:00:00,
2013-06-14 08:06:00,53.3,53.3,29.70,West,271,0.0,0.0,100,0.01,n/a,n/a,-99.99,Henriksen +1-Wire,2013-06-14 12:06:00,
2013-06-14 08:11:00,53.3,53.3,29.70,West,274,0.0,0.4,100,0.01,n/a,n/a,-99.99,Henriksen +1-Wire,2013-06-14 12:11:00,
2013-06-14 08:16:00,53.3,53.3,29.70,SW,225,0.0,0.4,100,0.01,n/a,n/a,-99.99,Henriksen +1-Wire,2013-06-14 12:16:00,
2013-06-14 08:21:00,53.3,53.3,29.70,NNW,344,0.4,2.4,100,0.00,n/a,n/a,-99.99,Henriksen +1-Wire,2013-06-14 12:21:00,
2013-06-14 08:26:00,53.3,53.3,29.70,NW,318,0.1,2.4,100,0.00,n/a,n/a,-99.99,Henriksen +1-Wire,2013-06-14 12:26:00,
2013-06-14 08:31:00,53.4,53.4,29.70,NE,42,0.0,0.8,100,0.00,n/a,n/a,-99.99,Henriksen +1-Wire,2013-06-14 12:31:00,
2013-06-14 08:36:00,53.4,53.4,29.70,NNE,27,0.0,1.6,100,0.00,n/a,n/a,-99.99,Henriksen +1-Wire,2013-06-14 12:36:00,
2013-06-14 08:41:00,53.5,53.5,29.70,NNE,13,0.0,1.6,100,0.00,n/a,n/a,-99.99,Henriksen +1-Wire,2013-06-14 12:41:00,
2013-06-14 08:46:00,53.6,53.6,29.70,ESE,121,0.0,0.4,100,0.00,n/a,n/a,-99.99,Henriksen +1-Wire,2013-06-14 12:46:00,
2013-06-14 08:51:00,53.8,53.8,29.70,NE,47,0.0,0.0,100,0.00,n/a,n/a,-99.99,Henriksen +1-Wire,2013-06-14 12:51:00,
2013-06-14 08:57:00,54.0,54.0,29.70,NE,55,0.0,0.0,100,0.00,n/a,n/a,-99.99,Henriksen +1-Wire,2013-06-14 12:57:00,
2013-06-14 09:02:00,54.1,54.1,29.70,NW,321,0.0,1.6,100,0.00,n/a,n/a,-99.99,Henriksen +1-Wire,2013-06-14 13:02:00,
2013-06-14 09:07:00,54.2,54.2,29.70,North,355,0.1,1.6,100,0.00,n/a,n/a,-99.99,Henriksen +1-Wire,2013-06-14 13:07:00,
2013-06-14 09:13:00,54.4,54.4,29.71,West,277,0.1,1.6,100,0.00,n/a,n/a,-99.99,Henriksen +1-Wire,2013-06-14 13:13:00,
2013-06-14 09:18:00,54.5,54.5,29.71,NW,319,0.8,1.6,100,0.00,n/a,n/a,-99.99,Henriksen +1-Wire,2013-06-14 13:18:00,
2013-06-14 09:23:00,54.7,54.7,29.71,NE,45,0.0,1.6,100,0.00,n/a,n/a,-99.99,Henriksen +1-Wire,2013-06-14 13:23:00,
2013-06-14 09:28:00,55.0,55.0,29.71,East,86,0.0,1.0,100,0.00,n/a,n/a,-99.99,Henriksen +1-Wire,2013-06-14 13:28:00,
2013-06-14 09:33:00,55.2,55.2,29.71,NE,48,0.0,0.8,100,0.00,n/a,n/a,-99.99,Henriksen +1-Wire,2013-06-14 13:33:00,
2013-06-14 09:38:00,55.4,55.4,29.71,North,351,0.1,0.8,100,0.00,n/a,n/a,-99.99,Henriksen +1-Wire,2013-06-14 13:38:00,
2013-06-14 09:43:00,55.5,55.5,29.71,NE,48,0.3,0.8,100,0.00,n/a,n/a,-99.99,Henriksen +1-Wire,2013-06-14 13:43:00,
2013-06-14 09:48:00,55.6,55.6,29.70,NE,46,0.0,1.3,100,0.00,n/a,n/a,-99.99,Henriksen +1-Wire,2013-06-14 13:48:00,
2013-06-14 09:53:00,55.8,55.8,29.70,SW,236,0.0,1.3,100,0.00,n/a,n/a,-99.99,Henriksen +1-Wire,2013-06-14 13:53:00,
2013-06-14 09:59:00,56.0,56.0,29.70,SW,234,0.0,0.8,100,0.00,n/a,n/a,-99.99,Henriksen +1-Wire,2013-06-14 13:59:00,
2013-06-14 10:05:00,56.2,56.2,29.70,ESE,109,0.0,0.8,100,0.00,n/a,n/a,-99.99,Henriksen +1-Wire,2013-06-14 14:05:00,
2013-06-14 10:11:00,56.5,56.5,29.70,NE,40,0.0,0.8,100,0.00,n/a,n/a,-99.99,Henriksen +1-Wire,2013-06-14 14:11:00,
2013-06-14 10:16:00,56.7,56.7,29.70,NE,40,0.7,2.4,100,0.00,n/a,n/a,-99.99,Henriksen +1-Wire,2013-06-14 14:16:00,
2013-06-14 10:21:00,57.0,57.0,29.70,ENE,58,0.5,2.4,100,0.00,n/a,n/a,-99.99,Henriksen +1-Wire,2013-06-14 14:21:00,
2013-06-14 10:26:00,57.3,57.3,29.70,East,91,0.0,1.6,100,0.00,n/a,n/a,-99.99,Henriksen +1-Wire,2013-06-14 14:26:00,
2013-06-14 10:31:00,57.5,57.5,29.70,East,90,0.1,0.8,100,0.00,n/a,n/a,-99.99,Henriksen +1-Wire,2013-06-14 14:31:00,
2013-06-14 10:37:00,57.9,57.9,29.70,SE,138,0.1,0.9,99,0.00,n/a,n/a,-99.99,Henriksen +1-Wire,2013-06-14 14:37:00,
2013-06-14 10:42:00,58.3,57.9,29.70,ENE,64,0.0,1.6,98,0.00,n/a,n/a,-99.99,Henriksen +1-Wire,2013-06-14 14:42:00,
2013-06-14 10:48:00,58.7,58.1,29.70,ENE,64,0.6,1.6,97,0.00,n/a,n/a,-99.99,Henriksen +1-Wire,2013-06-14 14:48:00,
2013-06-14 10:53:00,58.9,58.2,29.70,North,353,0.2,1.6,97,0.00,n/a,n/a,-99.99,Henriksen +1-Wire,2013-06-14 14:53:00,
2013-06-14 10:58:00,59.4,58.7,29.70,NE,43,0.3,2.4,97,0.00,n/a,n/a,-99.99,Henriksen +1-Wire,2013-06-14 14:58:00,
2013-06-14 11:03:00,59.7,58.8,29.70,North,354,0.5,2.5,96,0.00,n/a,n/a,-99.99,Henriksen +1-Wire,2013-06-14 15:03:00,
2013-06-14 11:08:00,60.2,59.1,29.70,North,354,0.5,2.5,96,0.00,n/a,n/a,-99.99,Henriksen +1-Wire,2013-06-14 15:08:00,
2013-06-14 11:13:00,60.7,59.4,29.70,North,4,0.8,2.5,95,0.00,n/a,n/a,-99.99,Henriksen +1-Wire,2013-06-14 15:13:00,
2013-06-14 11:18:00,61.0,59.5,29.70,North,357,0.0,2.5,94,0.00,n/a,n/a,-99.99,Henriksen +1-Wire,2013-06-14 15:18:00,
2013-06-14 11:23:00,61.5,59.5,29.69,NE,56,0.7,2.4,93,0.00,n/a,n/a,-99.99,Henriksen +1-Wire,2013-06-14 15:23:00,
2013-06-14 11:28:00,62.0,59.9,29.69,NE,43,0.6,2.4,92,0.00,n/a,n/a,-99.99,Henriksen +1-Wire,2013-06-14 15:28:00,
2013-06-14 11:33:00,62.4,60.1,29.69,East,89,0.6,2.4,92,0.00,n/a,n/a,-99.99,Henriksen +1-Wire,2013-06-14 15:33:00,
2013-06-14 11:39:00,63.1,60.0,29.69,NE,45,0.7,2.2,89,0.00,n/a,n/a,-99.99,Henriksen +1-Wire,2013-06-14 15:39:00,
2013-06-14 11:45:00,63.9,59.7,29.70,North,0,0.5,3.1,86,0.00,n/a,n/a,-99.99,Henriksen +1-Wire,2013-06-14 15:45:00,
2013-06-14 11:50:00,63.9,59.4,29.70,NE,50,0.2,3.1,85,0.00,n/a,n/a,-99.99,Henriksen +1-Wire,2013-06-14 15:50:00,
2013-06-14 11:55:00,63.8,59.4,29.70,NE,47,0.4,2.4,85,0.00,n/a,n/a,-99.99,Henriksen +1-Wire,2013-06-14 15:55:00,
2013-06-14 12:00:00,63.9,59.5,29.70,NNW,334,1.1,2.4,85,0.00,n/a,n/a,-99.99,Henriksen +1-Wire,2013-06-14 16:00:00,
2013-06-14 12:05:00,64.2,59.8,29.70,NE,45,0.2,2.3,85,0.00,n/a,n/a,-99.99,Henriksen +1-Wire,2013-06-14 16:05:00,
2013-06-14 12:11:00,64.6,59.8,29.70,SSW,213,1.0,2.9,84,0.00,n/a,n/a,-99.99,Henriksen +1-Wire,2013-06-14 16:11:00,
2013-06-14 12:16:00,64.8,60.0,29.70,SSW,201,0.4,2.4,84,0.00,n/a,n/a,-99.99,Henriksen +1-Wire,2013-06-14 16:16:00,
2013-06-14 12:21:00,64.8,60.3,29.70,East,90,0.2,2.4,85,0.00,n/a,n/a,-99.99,Henriksen +1-Wire,2013-06-14 16:21:00,
2013-06-14 12:27:00,65.1,60.6,29.70,NW,317,0.4,2.4,85,0.00,n/a,n/a,-99.99,Henriksen +1-Wire,2013-06-14 16:27:00,
2013-06-14 12:32:00,65.1,60.3,29.70,West,268,0.9,2.4,84,0.00,n/a,n/a,-99.99,Henriksen +1-Wire,2013-06-14 16:32:00,
2013-06-14 12:37:00,65.3,60.3,29.70,NW,315,0.4,2.4,83,0.00,n/a,n/a,-99.99,Henriksen +1-Wire,2013-06-14 16:37:00,
2013-06-14 12:42:00,65.7,60.0,29.70,WSW,241,1.2,3.2,81,0.00,n/a,n/a,-99.99,Henriksen +1-Wire,2013-06-14 16:42:00,
2013-06-14 12:47:00,66.2,59.7,29.70,SW,223,1.8,3.2,79,0.00,n/a,n/a,-99.99,Henriksen +1-Wire,2013-06-14 16:47:00,
2013-06-14 12:52:00,67.0,60.1,29.70,South,183,1.0,3.2,78,0.00,n/a,n/a,-99.99,Henriksen +1-Wire,2013-06-14 16:52:00,
2013-06-14 12:57:00,67.6,61.0,29.70,South,186,0.8,3.2,79,0.00,n/a,n/a,-99.99,Henriksen +1-Wire,2013-06-14 16:57:00,
2013-06-14 13:02:00,67.7,61.4,29.70,NNE,28,1.5,2.8,79,0.00,n/a,n/a,-99.99,Henriksen +1-Wire,2013-06-14 17:02:00,
2013-06-14 13:07:00,68.1,61.2,29.69,North,356,0.7,4.7,78,0.00,n/a,n/a,-99.99,Henriksen +1-Wire,2013-06-14 17:07:00,
2013-06-14 13:12:00,68.8,61.0,29.69,SSW,212,2.3,4.7,75,0.00,n/a,n/a,-99.99,Henriksen +1-Wire,2013-06-14 17:12:00,
2013-06-14 13:17:00,68.6,59.7,29.69,SW,217,1.9,5.5,72,0.00,n/a,n/a,-99.99,Henriksen +1-Wire,2013-06-14 17:17:00,
2013-06-14 13:23:00,68.6,59.2,29.69,SW,214,1.9,5.5,71,0.00,n/a,n/a,-99.99,Henriksen +1-Wire,2013-06-14 17:23:00,
2013-06-14 13:28:00,68.5,59.2,29.69,SSW,204,5.0,7.3,71,0.00,n/a,n/a,-99.99,Henriksen +1-Wire,2013-06-14 17:28:00,
2013-06-14 13:33:00,68.3,59.4,29.69,SSW,211,3.6,7.3,72,0.00,n/a,n/a,-99.99,Henriksen +1-Wire,2013-06-14 17:33:00,
2013-06-14 13:39:00,68.0,59.5,29.69,SSW,204,1.5,7.5,74,0.00,n/a,n/a,-99.99,Henriksen +1-Wire,2013-06-14 17:39:00,
2013-06-14 13:45:00,68.0,60.1,29.69,SSE,160,1.8,5.5,75,0.00,n/a,n/a,-99.99,Henriksen +1-Wire,2013-06-14 17:45:00,
2013-06-14 13:50:00,68.4,60.5,29.68,South,191,1.8,4.7,75,0.00,n/a,n/a,-99.99,Henriksen +1-Wire,2013-06-14 17:50:00,
2013-06-14 13:55:00,69.0,61.0,29.68,SW,214,1.0,4.8,75,0.00,n/a,n/a,-99.99,Henriksen +1-Wire,2013-06-14 17:55:00,
2013-06-14 14:00:00,69.3,61.2,29.68,SSW,199,2.4,4.8,74,0.00,n/a,n/a,-99.99,Henriksen +1-Wire,2013-06-14 18:00:00,
2013-06-14 14:05:00,69.6,61.3,29.68,SSW,208,2.0,5.5,74,0.00,n/a,n/a,-99.99,Henriksen +1-Wire,2013-06-14 18:05:00,
2013-06-14 14:10:00,69.6,61.6,29.69,SW,216,2.5,5.5,75,0.00,n/a,n/a,-99.99,Henriksen +1-Wire,2013-06-14 18:10:00,
2013-06-14 14:15:00,69.7,61.8,29.69,SSW,210,3.0,5.5,75,0.00,n/a,n/a,-99.99,Henriksen +1-Wire,2013-06-14 18:15:00,
2013-06-14 14:20:00,69.7,61.3,29.69,South,172,2.9,6.5,74,0.00,n/a,n/a,-99.99,Henriksen +1-Wire,2013-06-14 18:20:00,
2013-06-14 14:25:00,69.6,60.8,29.69,SW,221,1.9,6.5,73,0.00,n/a,n/a,-99.99,Henriksen +1-Wire,2013-06-14 18:25:00,
2013-06-14 14:30:00,69.6,60.5,29.69,SE,145,2.5,5.5,72,0.00,n/a,n/a,-99.99,Henriksen +1-Wire,2013-06-14 18:30:00,
2013-06-14 14:36:00,69.3,60.2,29.69,South,180,4.6,8.5,72,0.00,n/a,n/a,-99.99,Henriksen +1-Wire,2013-06-14 18:36:00,
2013-06-14 14:41:00,68.7,59.6,29.69,South,184,2.0,8.5,72,0.00,n/a,n/a,-99.99,Henriksen +1-Wire,2013-06-14 18:41:00,
2013-06-14 14:46:00,68.4,59.9,29.69,South,185,3.6,6.3,73,0.00,n/a,n/a,-99.99,Henriksen +1-Wire,2013-06-14 18:46:00,
2013-06-14 14:51:00,68.1,60.0,29.69,SSW,204,3.9,6.4,74,0.00,n/a,n/a,-99.99,Henriksen +1-Wire,2013-06-14 18:51:00,
2013-06-14 14:57:00,68.0,59.7,29.68,SSW,201,3.5,8.7,74,0.00,n/a,n/a,-99.99,Henriksen +1-Wire,2013-06-14 18:57:00,
2013-06-14 15:02:00,67.5,59.2,29.68,East,81,2.8,6.3,74,0.00,n/a,n/a,-99.99,Henriksen +1-Wire,2013-06-14 19:02:00,
2013-06-14 15:07:00,67.4,59.8,29.68,South,181,3.7,6.3,76,0.00,n/a,n/a,-99.99,Henriksen +1-Wire,2013-06-14 19:07:00,
2013-06-14 15:13:00,66.7,59.9,29.68,SSE,156,2.6,7.5,78,0.00,n/a,n/a,-99.99,Henriksen +1-Wire,2013-06-14 19:13:00,
2013-06-14 15:18:00,66.5,59.7,29.68,South,190,3.6,7.1,78,0.00,n/a,n/a,-99.99,Henriksen +1-Wire,2013-06-14 19:18:00,
2013-06-14 15:23:00,66.4,59.4,29.68,SSW,194,2.8,6.2,78,0.00,n/a,n/a,-99.99,Henriksen +1-Wire,2013-06-14 19:23:00,
2013-06-14 15:28:00,66.6,59.3,29.68,South,191,2.9,5.5,77,0.00,n/a,n/a,-99.99,Henriksen +1-Wire,2013-06-14 19:28:00,
2013-06-14 15:33:00,66.3,59.1,29.67,SSW,198,4.7,6.4,77,0.00,n/a,n/a,-99.99,Henriksen +1-Wire,2013-06-14 19:33:00,
2013-06-14 15:38:00,65.8,58.7,29.67,SSW,193,3.4,6.9,77,0.00,n/a,n/a,-99.99,Henriksen +1-Wire,2013-06-14 19:38:00,
2013-06-14 15:43:00,65.5,58.7,29.67,SSW,207,3.1,6.9,78,0.00,n/a,n/a,-99.99,Henriksen +1-Wire,2013-06-14 19:43:00,
2013-06-14 15:48:00,65.4,58.6,29.67,SSW,203,3.5,6.7,78,0.00,n/a,n/a,-99.99,Henriksen +1-Wire,2013-06-14 19:48:00,
2013-06-14 15:53:00,65.6,58.8,29.67,SSW,203,4.1,7.7,78,0.00,n/a,n/a,-99.99,Henriksen +1-Wire,2013-06-14 19:53:00,
2013-06-14 15:58:00,65.7,58.7,29.67,South,189,2.7,7.7,77,0.00,n/a,n/a,-99.99,Henriksen +1-Wire,2013-06-14 19:58:00,
2013-06-14 16:03:00,65.8,58.9,29.67,South,188,3.2,7.1,78,0.00,n/a,n/a,-99.99,Henriksen +1-Wire,2013-06-14 20:03:00,
2013-06-14 16:09:00,66.1,59.2,29.67,SSW,194,3.2,7.1,78,0.00,n/a,n/a,-99.99,Henriksen +1-Wire,2013-06-14 20:09:00,
2013-06-14 16:15:00,66.4,59.3,29.67,South,188,2.1,6.4,77,0.00,n/a,n/a,-99.99,Henriksen +1-Wire,2013-06-14 20:15:00,
2013-06-14 16:20:00,66.5,59.1,29.67,South,191,4.1,7.2,77,0.00,n/a,n/a,-99.99,Henriksen +1-Wire,2013-06-14 20:20:00,
2013-06-14 16:25:00,66.4,58.9,29.67,SSW,195,2.6,7.2,76,0.00,n/a,n/a,-99.99,Henriksen +1-Wire,2013-06-14 20:25:00,
2013-06-14 16:30:00,66.4,59.0,29.67,SE,136,2.9,6.3,76,0.00,n/a,n/a,-99.99,Henriksen +1-Wire,2013-06-14 20:30:00,
2013-06-14 16:35:00,65.8,58.9,29.67,South,179,3.5,6.3,78,0.00,n/a,n/a,-99.99,Henriksen +1-Wire,2013-06-14 20:35:00,
2013-06-14 16:40:00,65.4,59.0,29.67,SW,219,2.4,5.6,79,0.00,n/a,n/a,-99.99,Henriksen +1-Wire,2013-06-14 20:40:00,
2013-06-14 16:46:00,64.9,59.2,29.67,SSW,195,2.3,5.5,81,0.00,n/a,n/a,-99.99,Henriksen +1-Wire,2013-06-14 20:46:00,
2013-06-14 16:51:00,64.6,59.1,29.67,SSW,204,3.2,5.5,82,0.00,n/a,n/a,-99.99,Henriksen +1-Wire,2013-06-14 20:51:00,
2013-06-14 16:57:00,64.2,58.9,29.67,SSW,200,4.5,6.7,82,0.00,n/a,n/a,-99.99,Henriksen +1-Wire,2013-06-14 20:57:00,
2013-06-14 17:03:00,63.8,58.8,29.67,South,176,1.9,6.7,83,0.00,n/a,n/a,-99.99,Henriksen +1-Wire,2013-06-14 21:03:00,
2013-06-14 17:08:00,63.4,58.8,29.67,SSE,160,2.2,5.8,84,0.00,n/a,n/a,-99.99,Henriksen +1-Wire,2013-06-14 21:08:00,
2013-06-14 17:13:00,63.2,59.0,29.67,SSW,207,2.5,5.8,85,0.00,n/a,n/a,-99.99,Henriksen +1-Wire,2013-06-14 21:13:00,
2013-06-14 17:19:00,63.1,58.9,29.67,South,187,1.9,4.6,86,0.00,n/a,n/a,-99.99,Henriksen +1-Wire,2013-06-14 21:19:00,
2013-06-14 17:25:00,63.0,59.0,29.67,South,183,1.7,4.7,86,0.00,n/a,n/a,-99.99,Henriksen +1-Wire,2013-06-14 21:25:00,
2013-06-14 17:30:00,63.1,59.2,29.67,SSE,164,2.7,4.7,87,0.00,n/a,n/a,-99.99,Henriksen +1-Wire,2013-06-14 21:30:00,
2013-06-14 17:35:00,63.1,59.2,29.67,South,180,2.1,4.2,87,0.00,n/a,n/a,-99.99,Henriksen +1-Wire,2013-06-14 21:35:00,
2013-06-14 17:40:00,62.9,59.1,29.67,SE,133,1.5,4.2,87,0.00,n/a,n/a,-99.99,Henriksen +1-Wire,2013-06-14 21:40:00,
2013-06-14 17:45:00,62.8,59.1,29.67,SSE,159,1.0,3.8,87,0.00,n/a,n/a,-99.99,Henriksen +1-Wire,2013-06-14 21:45:00,
2013-06-14 17:51:00,62.8,59.1,29.67,South,187,0.3,3.2,87,0.00,n/a,n/a,-99.99,Henriksen +1-Wire,2013-06-14 21:51:00,
2013-06-14 17:56:00,62.8,59.2,29.67,SSE,155,1.0,3.2,87,0.00,n/a,n/a,-99.99,Henriksen +1-Wire,2013-06-14 21:56:00,
2013-06-14 18:01:00,63.0,59.4,29.67,SSE,147,1.1,2.4,87,0.00,n/a,n/a,-99.99,Henriksen +1-Wire,2013-06-14 22:01:00,
2013-06-14 18:06:00,63.3,59.6,29.67,SSE,164,1.1,2.5,87,0.00,n/a,n/a,-99.99,Henriksen +1-Wire,2013-06-14 22:06:00,
2013-06-14 18:11:00,63.5,59.8,29.67,South,183,0.7,2.5,87,0.00,n/a,n/a,-99.99,Henriksen +1-Wire,2013-06-14 22:11:00,
2013-06-14 18:16:00,63.6,59.9,29.67,South,182,1.7,2.5,87,0.00,n/a,n/a,-99.99,Henriksen +1-Wire,2013-06-14 22:16:00,
2013-06-14 18:21:00,63.7,59.9,29.67,SSE,158,0.5,3.1,87,0.00,n/a,n/a,-99.99,Henriksen +1-Wire,2013-06-14 22:21:00,
2013-06-14 18:26:00,63.7,59.9,29.67,SSE,154,0.0,3.1,87,0.00,n/a,n/a,-99.99,Henriksen +1-Wire,2013-06-14 22:26:00,
2013-06-14 18:31:00,63.6,59.9,29.67,SSE,150,1.0,2.4,87,0.00,n/a,n/a,-99.99,Henriksen +1-Wire,2013-06-14 22:31:00,
2013-06-14 18:36:00,63.6,60.0,29.67,SE,139,1.0,2.4,87,0.00,n/a,n/a,-99.99,Henriksen +1-Wire,2013-06-14 22:36:00,
2013-06-14 18:41:00,63.6,60.0,29.67,SSE,164,0.0,2.1,87,0.00,n/a,n/a,-99.99,Henriksen +1-Wire,2013-06-14 22:41:00,
2013-06-14 18:46:00,63.6,60.0,29.67,SE,145,0.2,2.4,87,0.00,n/a,n/a,-99.99,Henriksen +1-Wire,2013-06-14 22:46:00,
2013-06-14 18:51:00,63.5,60.0,29.67,SSE,157,1.5,4.0,87,0.00,n/a,n/a,-99.99,Henriksen +1-Wire,2013-06-14 22:51:00,
2013-06-14 18:56:00,63.3,59.7,29.68,South,186,0.3,4.1,87,0.00,n/a,n/a,-99.99,Henriksen +1-Wire,2013-06-14 22:56:00,
2013-06-14 19:01:00,63.1,59.5,29.68,SSE,153,0.0,4.1,87,0.00,n/a,n/a,-99.99,Henriksen +1-Wire,2013-06-14 23:01:00,
2013-06-14 19:07:00,62.8,59.3,29.67,SE,140,0.1,1.6,88,0.00,n/a,n/a,-99.99,Henriksen +1-Wire,2013-06-14 23:07:00,
2013-06-14 19:12:00,62.7,59.3,29.67,SE,145,0.4,1.6,88,0.00,n/a,n/a,-99.99,Henriksen +1-Wire,2013-06-14 23:12:00,
2013-06-14 19:17:00,62.6,59.3,29.68,SSE,166,0.0,1.6,88,0.00,n/a,n/a,-99.99,Henriksen +1-Wire,2013-06-14 23:17:00,
2013-06-14 19:23:00,62.6,59.3,29.68,SE,137,0.0,0.0,88,0.00,n/a,n/a,-99.99,Henriksen +1-Wire,2013-06-14 23:23:00,
2013-06-14 19:29:00,62.6,59.3,29.68,SE,138,0.0,0.0,88,0.00,n/a,n/a,-99.99,Henriksen +1-Wire,2013-06-14 23:29:00,
2013-06-14 19:35:00,62.5,59.3,29.68,SSE,167,0.0,0.0,89,0.00,n/a,n/a,-99.99,Henriksen +1-Wire,2013-06-14 23:35:00,
2013-06-14 19:40:00,62.4,59.5,29.68,ESE,112,0.0,0.0,89,0.00,n/a,n/a,-99.99,Henriksen +1-Wire,2013-06-14 23:40:00,
2013-06-14 19:46:00,62.3,59.5,29.68,South,179,0.0,0.0,90,0.00,n/a,n/a,-99.99,Henriksen +1-Wire,2013-06-14 23:46:00,
2013-06-14 19:51:00,62.2,59.7,29.68,SW,214,0.0,0.0,91,0.00,n/a,n/a,-99.99,Henriksen +1-Wire,2013-06-14 23:51:00,
2013-06-14 19:56:00,62.1,59.8,29.68,SSW,209,0.0,0.0,92,0.00,n/a,n/a,-99.99,Henriksen +1-Wire,2013-06-14 23:56:00,
2013-06-14 20:02:00,62.0,59.9,29.68,NE,45,0.0,0.0,92,0.00,n/a,n/a,-99.99,Henriksen +1-Wire,2013-06-15 00:02:00,
2013-06-14 20:07:00,61.9,60.0,29.68,East,91,0.0,0.0,93,0.00,n/a,n/a,-99.99,Henriksen +1-Wire,2013-06-15 00:07:00,
2013-06-14 20:13:00,61.8,60.1,29.68,SSE,158,0.0,0.8,94,0.00,n/a,n/a,-99.99,Henriksen +1-Wire,2013-06-15 00:13:00,
2013-06-14 20:18:00,61.7,60.0,29.68,South,181,0.0,0.8,94,0.00,n/a,n/a,-99.99,Henriksen +1-Wire,2013-06-15 00:18:00,
2013-06-14 20:23:00,61.7,59.9,29.69,SE,145,0.0,0.0,93,0.00,n/a,n/a,-99.99,Henriksen +1-Wire,2013-06-15 00:23:00,
2013-06-14 20:28:00,61.5,59.8,29.69,NE,43,1.2,1.7,93,0.00,n/a,n/a,-99.99,Henriksen +1-Wire,2013-06-15 00:28:00,
2013-06-14 20:33:00,61.2,59.7,29.69,ENE,58,0.0,1.7,94,0.00,n/a,n/a,-99.99,Henriksen +1-Wire,2013-06-15 00:33:00,
2013-06-14 20:38:00,61.1,59.8,29.69,NNE,25,0.0,1.6,95,0.00,n/a,n/a,-99.99,Henriksen +1-Wire,2013-06-15 00:38:00,
2013-06-14 20:43:00,61.0,59.8,29.69,ESE,103,0.0,0.4,95,0.00,n/a,n/a,-99.99,Henriksen +1-Wire,2013-06-15 00:43:00,
2013-06-14 20:48:00,61.1,59.9,29.69,NNW,328,0.0,0.0,95,0.00,n/a,n/a,-99.99,Henriksen +1-Wire,2013-06-15 00:48:00,
2013-06-14 20:53:00,61.1,59.7,29.69,SE,139,0.0,0.0,95,0.00,n/a,n/a,-99.99,Henriksen +1-Wire,2013-06-15 00:53:00,
2013-06-14 20:58:00,61.2,59.6,29.69,South,179,0.0,0.0,94,0.00,n/a,n/a,-99.99,Henriksen +1-Wire,2013-06-15 00:58:00,
2013-06-14 21:04:00,61.2,59.1,29.69,South,182,0.0,0.0,92,0.00,n/a,n/a,-99.99,Henriksen +1-Wire,2013-06-15 01:04:00,
2013-06-14 21:09:00,61.3,58.5,29.70,South,189,0.0,0.0,90,0.00,n/a,n/a,-99.99,Henriksen +1-Wire,2013-06-15 01:09:00,
2013-06-14 21:15:00,61.3,58.2,29.70,SSE,163,0.0,0.0,89,0.00,n/a,n/a,-99.99,Henriksen +1-Wire,2013-06-15 01:15:00,
2013-06-14 21:20:00,61.3,58.2,29.70,SE,142,0.0,0.0,89,0.00,n/a,n/a,-99.99,Henriksen +1-Wire,2013-06-15 01:20:00,
2013-06-14 21:26:00,61.3,58.4,29.70,South,170,0.0,0.0,90,0.00,n/a,n/a,-99.99,Henriksen +1-Wire,2013-06-15 01:26:00,
2013-06-14 21:31:00,61.3,58.4,29.70,ENE,57,0.6,2.5,90,0.00,n/a,n/a,-99.99,Henriksen +1-Wire,2013-06-15 01:31:00,
2013-06-14 21:37:00,61.3,58.8,29.71,ENE,75,2.0,7.0,91,0.00,n/a,n/a,-99.99,Henriksen +1-Wire,2013-06-15 01:37:00,
2013-06-14 21:43:00,61.7,59.2,29.72,NNW,333,2.2,7.0,91,0.00,n/a,n/a,-99.99,Henriksen +1-Wire,2013-06-15 01:43:00,
2013-06-14 21:48:00,62.1,59.0,29.72,North,349,0.6,3.9,89,0.00,n/a,n/a,-99.99,Henriksen +1-Wire,2013-06-15 01:48:00,
2013-06-14 21:53:00,62.6,58.7,29.72,East,99,1.6,3.9,86,0.00,n/a,n/a,-99.99,Henriksen +1-Wire,2013-06-15 01:53:00,
2013-06-14 21:58:00,63.1,58.2,29.72,East,90,0.4,4.8,83,0.00,n/a,n/a,-99.99,Henriksen +1-Wire,2013-06-15 01:58:00,
2013-06-14 22:04:00,63.5,57.7,29.72,NNW,329,0.3,3.2,81,0.00,n/a,n/a,-99.99,Henriksen +1-Wire,2013-06-15 02:04:00,
2013-06-14 22:09:00,63.6,57.3,29.72,North,357,0.0,1.7,79,0.00,n/a,n/a,-99.99,Henriksen +1-Wire,2013-06-15 02:09:00,
2013-06-14 22:15:00,63.6,57.1,29.72,SE,138,0.5,1.6,79,0.00,n/a,n/a,-99.99,Henriksen +1-Wire,2013-06-15 02:15:00,
2013-06-14 22:20:00,63.4,57.2,29.72,NW,306,0.5,1.6,80,0.00,n/a,n/a,-99.99,Henriksen +1-Wire,2013-06-15 02:20:00,
2013-06-14 22:25:00,63.2,57.3,29.72,NW,326,0.2,1.6,80,0.00,n/a,n/a,-99.99,Henriksen +1-Wire,2013-06-15 02:25:00,
2013-06-14 22:30:00,63.1,57.1,29.72,East,97,0.0,0.8,80,0.00,n/a,n/a,-99.99,Henriksen +1-Wire,2013-06-15 02:30:00,
2013-06-14 22:35:00,62.6,57.0,29.72,ESE,109,0.0,0.0,81,0.00,n/a,n/a,-99.99,Henriksen +1-Wire,2013-06-15 02:35:00,
2013-06-14 22:41:00,62.2,57.3,29.73,SSW,205,0.8,1.6,83,0.00,n/a,n/a,-99.99,Henriksen +1-Wire,2013-06-15 02:41:00,
2013-06-14 22:46:00,62.0,57.4,29.73,South,174,0.2,2.5,84,0.00,n/a,n/a,-99.99,Henriksen +1-Wire,2013-06-15 02:46:00,
2013-06-14 22:51:00,61.9,57.5,29.73,NW,306,1.2,3.2,85,0.00,n/a,n/a,-99.99,Henriksen +1-Wire,2013-06-15 02:51:00,
2013-06-14 22:56:00,61.7,57.5,29.73,South,181,0.1,3.2,86,0.00,n/a,n/a,-99.99,Henriksen +1-Wire,2013-06-15 02:56:00,
2013-06-14 23:01:00,61.5,57.5,29.73,South,173,0.0,3.2,86,0.00,n/a,n/a,-99.99,Henriksen +1-Wire,2013-06-15 03:01:00,
2013-06-14 23:06:00,61.4,57.4,29.73,SSW,208,0.0,0.0,86,0.00,n/a,n/a,-99.99,Henriksen +1-Wire,2013-06-15 03:06:00,
2013-06-14 23:11:00,61.3,57.4,29.73,North,9,0.8,1.7,86,0.00,n/a,n/a,-99.99,Henriksen +1-Wire,2013-06-15 03:11:00,
2013-06-14 23:16:00,61.1,57.5,29.73,West,270,0.3,1.7,87,0.00,n/a,n/a,-99.99,Henriksen +1-Wire,2013-06-15 03:16:00,
2013-06-14 23:22:00,60.9,57.5,29.73,ENE,73,0.2,2.4,88,0.00,n/a,n/a,-99.99,Henriksen +1-Wire,2013-06-15 03:22:00,
2013-06-14 23:27:00,60.5,57.6,29.74,East,79,0.8,2.4,90,0.00,n/a,n/a,-99.99,Henriksen +1-Wire,2013-06-15 03:27:00,
2013-06-14 23:32:00,60.2,57.6,29.74,ESE,102,0.3,1.7,91,0.00,n/a,n/a,-99.99,Henriksen +1-Wire,2013-06-15 03:32:00,
2013-06-14 23:37:00,60.0,57.8,29.75,SE,140,0.5,2.5,92,0.00,n/a,n/a,-99.99,Henriksen +1-Wire,2013-06-15 03:37:00,
2013-06-14 23:42:00,60.0,57.9,29.75,SSE,164,1.8,5.6,92,0.00,n/a,n/a,-99.99,Henriksen +1-Wire,2013-06-15 03:42:00,
2013-06-14 23:47:00,60.1,58.0,29.75,South,176,0.0,5.6,92,0.00,n/a,n/a,-99.99,Henriksen +1-Wire,2013-06-15 03:47:00,
2013-06-14 23:52:00,60.2,57.7,29.74,SSW,204,0.2,1.6,91,0.00,n/a,n/a,-99.99,Henriksen +1-Wire,2013-06-15 03:52:00,
2013-06-14 23:57:00,60.2,57.4,29.75,SSW,207,0.0,1.6,90,0.00,n/a,n/a,-99.99,Henriksen +1-Wire,2013-06-15 03:57:00,